Change the Weather History Date:

Wednesday, December 19, 2012

  Actual Average Record
Temperature  
Mean Temperature 54 °F -  
Max Temperature 71 °F 53 °F 65 °F (2013)
Min Temperature 36 °F 32 °F 32 °F (2013)
Degree Days  
Heating Degree Days 12    
Growing Degree Days 4 (Base 50)    
Moisture  
Dew Point 39 °F    
Average Humidity 60    
Maximum Humidity 89    
Minimum Humidity 33    
Precipitation  
Precipitation 0.00 in - - ()
Sea Level Pressure  
Sea Level Pressure 30.04 in    
Wind  
Wind Speed 4 mph ()    
Max Wind Speed 8 mph    
Max Gust Speed -    
Visibility 10.0 miles    
Events      
Averages and records for this station are not official NWS values.
T = Trace of Precipitation, MM = Missing Value Source: Averaged Metar Reports

Daily Weather History Graph

Daily Weather History Graph

Search for Another Location

Airport or City:

Trip Planner

Search our weather history database for the weather conditions in past years. The results will help you decide how hot, cold, wet, or windy it might be!

Date:

Astronomy

Dec. 19, 2012 Rise Set
Actual Time 7:35 AM EST 5:25 PM EST
Civil Twilight 7:07 AM EST 5:53 PM EST
Nautical Twilight 6:35 AM EST 6:25 PM EST
Astronomical Twilight 6:05 AM EST 6:56 PM EST
Moon 12:00 PM EST (12/19) No Moon Set
Length of Visible Light 10h 46m
Length of Day
9h 50m
Waxing Crescent, 45% of the Moon is Illuminated
Dec 19
Waxing Crescent
Dec 20
First Quarter
Dec 28
Full
Jan 4
Last Quarter
Jan 11
New

Hourly Weather History & Observations

Time (EST) Temp. Windchill Dew Point Humidity Pressure Visibility Wind Dir Wind Speed Gust Speed Precip Events Conditions
12:15 AM 48.2 °F - 32.4 °F 54% 29.99 in 10.0 mi WNW 5.8 mph - N/A   Clear
12:35 AM 47.8 °F - 32.4 °F 55% 29.99 in 10.0 mi West 4.6 mph - N/A   Clear
12:55 AM 49.1 °F - 32.0 °F 52% 29.99 in 10.0 mi West 6.9 mph - N/A   Clear
1:15 AM 49.3 °F - 31.8 °F 51% 29.99 in 10.0 mi West 5.8 mph - N/A   Clear
1:35 AM 48.6 °F - 32.0 °F 53% 29.99 in 10.0 mi West 5.8 mph - N/A   Clear
1:55 AM 47.8 °F - 31.8 °F 54% 29.99 in 10.0 mi West 4.6 mph - N/A   Clear
2:15 AM 47.1 °F - 31.8 °F 55% 29.99 in 10.0 mi West 5.8 mph - N/A   Clear
2:35 AM 43.0 °F 40.3 °F 33.4 °F 69% 30.00 in 10.0 mi WSW 4.6 mph - N/A   Clear
2:55 AM 45.0 °F 42.6 °F 32.2 °F 61% 29.99 in 10.0 mi West 4.6 mph - N/A   Clear
3:15 AM 43.2 °F 39.7 °F 32.7 °F 67% 29.99 in 10.0 mi WSW 5.8 mph - N/A   Clear
3:35 AM 41.7 °F 38.8 °F 32.4 °F 69% 30.00 in 10.0 mi WNW 4.6 mph - N/A   Clear
3:55 AM 45.0 °F 43.5 °F 32.0 °F 60% 30.00 in 10.0 mi WNW 3.5 mph - N/A   Clear
4:15 AM 45.5 °F 42.5 °F 31.8 °F 59% 29.99 in 10.0 mi WSW 5.8 mph - N/A   Clear
4:35 AM 44.2 °F 41.8 °F 32.0 °F 62% 29.99 in 10.0 mi WSW 4.6 mph - N/A   Clear
4:55 AM 45.3 °F 43.0 °F 32.4 °F 61% 30.00 in 10.0 mi WSW 4.6 mph - N/A   Clear
5:15 AM 40.8 °F - 32.9 °F 73% 30.01 in 10.0 mi Calm Calm - N/A   Clear
5:35 AM 40.3 °F - 32.9 °F 75% 30.01 in 10.0 mi Calm Calm - N/A   Clear
5:55 AM 39.0 °F - 32.2 °F 76% 30.02 in 10.0 mi Calm Calm - N/A   Clear
6:15 AM 39.4 °F - 32.9 °F 78% 30.02 in 10.0 mi Calm Calm - N/A   Clear
6:35 AM 39.6 °F - 33.1 °F 78% 30.02 in 10.0 mi Calm Calm - N/A   Clear
6:55 AM 37.9 °F - 32.5 °F 81% 30.03 in 10.0 mi Calm Calm - N/A   Clear
7:15 AM 37.4 °F 33.8 °F 32.9 °F 84% 30.04 in 10.0 mi NW 4.6 mph - N/A   Clear
7:35 AM 36.5 °F - 32.9 °F 87% 30.04 in 10.0 mi Calm Calm - N/A   Clear
7:55 AM 36.5 °F 32.7 °F 33.4 °F 89% 30.04 in 10.0 mi SW 4.6 mph - N/A   Clear
8:15 AM 38.3 °F 33.9 °F 34.7 °F 87% 30.05 in 10.0 mi SW 5.8 mph - N/A   Clear
8:35 AM 41.9 °F 39.0 °F 37.2 °F 83% 30.06 in 10.0 mi SW 4.6 mph - N/A   Clear
8:55 AM 47.5 °F - 37.2 °F 68% 30.06 in 10.0 mi SW 5.8 mph - N/A   Clear
9:15 AM 50.9 °F - 37.6 °F 60% 30.07 in 10.0 mi WSW 4.6 mph - N/A   Clear
9:35 AM 53.6 °F - 37.2 °F 54% 30.07 in 10.0 mi SW 3.5 mph - N/A   Clear
9:55 AM 57.4 °F - 38.1 °F 49% 30.07 in 10.0 mi Calm Calm - N/A   Clear
10:15 AM 59.7 °F - 38.8 °F 46% 30.08 in 10.0 mi SW 3.5 mph - N/A   Clear
10:35 AM 61.5 °F - 39.4 °F 44% 30.08 in 10.0 mi West 3.5 mph - N/A   Clear
10:55 AM 62.6 °F - 39.6 °F 43% 30.09 in 10.0 mi WSW 5.8 mph - N/A   Clear
11:15 AM 64.4 °F - 39.9 °F 41% 30.09 in 10.0 mi WSW 5.8 mph - N/A   Clear
11:35 AM 65.3 °F - 39.9 °F 39% 30.08 in 10.0 mi West 4.6 mph - N/A   Clear
11:55 AM 66.4 °F - 40.8 °F 39% 30.07 in 10.0 mi WSW 6.9 mph - N/A   Clear
12:15 PM 67.1 °F - 40.5 °F 38% 30.06 in 10.0 mi SW 5.8 mph - N/A   Clear
12:35 PM 67.3 °F - 41.2 °F 39% 30.04 in 10.0 mi WSW 8.1 mph - N/A   Clear
12:55 PM 68.5 °F - 41.5 °F 37% 30.04 in 10.0 mi West 8.1 mph - N/A   Clear
1:15 PM 69.8 °F - 41.4 °F 36% 30.03 in 10.0 mi WSW 8.1 mph - N/A   Clear
1:35 PM 69.3 °F - 41.0 °F 36% 30.03 in 10.0 mi West 6.9 mph - N/A   Clear
1:55 PM 70.3 °F - 40.5 °F 34% 30.02 in 10.0 mi West 5.8 mph - N/A   Clear
2:15 PM 70.9 °F - 40.5 °F 33% 30.02 in 10.0 mi West 4.6 mph - N/A   Clear
2:35 PM 71.1 °F - 41.5 °F 34% 30.02 in 10.0 mi SW 5.8 mph - N/A   Clear
2:55 PM 70.9 °F - 42.4 °F 36% 30.02 in 10.0 mi SW 5.8 mph - N/A   Clear
3:15 PM 70.9 °F - 42.1 °F 35% 30.02 in 10.0 mi Calm Calm - N/A   Clear
3:35 PM 71.1 °F - 41.9 °F 35% 30.02 in 10.0 mi SW 4.6 mph - N/A   Clear
3:55 PM 70.7 °F - 42.3 °F 36% 30.02 in 10.0 mi WSW 8.1 mph - N/A   Clear
4:15 PM 70.2 °F - 42.8 °F 37% 30.02 in 10.0 mi SW 6.9 mph - N/A   Clear
4:35 PM 68.4 °F - 43.3 °F 40% 30.03 in 10.0 mi SSW 5.8 mph - N/A   Clear
4:55 PM 68.0 °F - 43.9 °F 42% 30.03 in 10.0 mi SW 8.1 mph - N/A   Clear
5:15 PM 65.5 °F - 44.8 °F 47% 30.04 in 10.0 mi SW 5.8 mph - N/A   Clear
5:35 PM 64.8 °F - 45.0 °F 49% 30.04 in 10.0 mi SSW 3.5 mph - N/A   Clear
5:55 PM 62.1 °F - 45.7 °F 55% 30.04 in 10.0 mi SW 6.9 mph - N/A   Clear
6:15 PM 62.1 °F - 45.5 °F 55% 30.05 in 10.0 mi Calm Calm - N/A   Clear
6:35 PM 59.9 °F - 45.7 °F 59% 30.06 in 10.0 mi WSW 4.6 mph - N/A   Clear
6:55 PM 59.9 °F - 45.5 °F 59% 30.07 in 10.0 mi SW 3.5 mph - N/A   Clear
7:15 PM 56.7 °F - 45.9 °F 67% 30.07 in 10.0 mi SW 4.6 mph - N/A   Clear
7:35 PM 57.2 °F - 45.9 °F 66% 30.07 in 10.0 mi WSW 4.6 mph - N/A   Clear
7:55 PM 53.4 °F - 45.9 °F 76% 30.07 in 10.0 mi SW 4.6 mph - N/A   Clear
8:15 PM 53.8 °F - 45.7 °F 74% 30.07 in 10.0 mi WSW 4.6 mph - N/A   Clear
8:35 PM 54.0 °F - 45.9 °F 74% 30.07 in 10.0 mi Calm Calm - N/A   Clear
8:55 PM 53.4 °F - 45.7 °F 75% 30.08 in 10.0 mi Calm Calm - N/A   Clear
9:15 PM 53.6 °F - 45.9 °F 75% 30.08 in 10.0 mi Calm Calm - N/A   Clear
9:35 PM 53.4 °F - 46.4 °F 77% 30.08 in 10.0 mi Calm Calm - N/A   Clear
9:55 PM 52.2 °F - 46.0 °F 80% 30.08 in 10.0 mi Calm Calm - N/A   Clear
10:15 PM 52.3 °F - 46.4 °F 80% 30.09 in 10.0 mi Calm Calm - N/A   Clear
10:35 PM 51.3 °F - 45.9 °F 82% 30.09 in 10.0 mi Calm Calm - N/A   Clear
10:55 PM 50.4 °F - 45.9 °F 85% 30.08 in 10.0 mi Calm Calm - N/A   Clear
11:15 PM 50.0 °F - 45.5 °F 85% 30.09 in 10.0 mi Calm Calm - N/A   Clear
11:35 PM 49.3 °F - 45.9 °F 88% 30.09 in 10.0 mi Calm Calm - N/A   Clear
11:55 PM 49.1 °F - 45.5 °F 87% 30.09 in 10.0 mi Calm Calm - N/A   Clear